This is the latest recevied weather packets stored in our database for station/object HP2BWJ-13. If no packets are shown the sender has not sent any weather packets the latest 10 day(s).
| Time | Temp. | Humidity | Pressure | Rain* | Wind** | Luminosity | Snow |
|---|---|---|---|---|---|---|---|
| 1777763073 | 24.44° C | 89% | 1010 hPa | 2.29 mm | - | - | - |
| 1777763012 | 24.44° C | 89% | 1010 hPa | 2.29 mm | - | - | - |
| 1777761871 | 25° C | 89% | 1009 hPa | 3.3 mm | - | - | - |
| 1777761811 | 25° C | 89% | 1009 hPa | 3.3 mm | - | - | - |
| 1777760670 | 25.56° C | 89% | 1009 hPa | 7.11 mm | - | - | - |
| 1777760610 | 25.56° C | 89% | 1009 hPa | 7.11 mm | - | - | - |
| 1777759470 | 26.11° C | 89% | 1009 hPa | 2.03 mm | - | - | - |
| 1777759410 | 26.11° C | 89% | 1009 hPa | 2.03 mm | - | - | - |
| 1777758269 | 26.67° C | 89% | 1009 hPa | 2.29 mm | - | - | - |
| 1777758209 | 26.67° C | 89% | 1009 hPa | 2.29 mm | - | - | - |
| 1777757068 | 25° C | 76% | 1009 hPa | 2.29 mm | - | - | - |
| 1777757007 | 25° C | 76% | 1009 hPa | 2.29 mm | - | - | - |
| 1777755867 | 25.56° C | 76% | 1009 hPa | 2.29 mm | - | - | - |
| 1777755806 | 25.56° C | 76% | 1009 hPa | 2.29 mm | - | - | - |
| 1777754666 | 26.11° C | 76% | 1008 hPa | 0.76 mm | - | - | - |
| 1777754606 | 26.11° C | 76% | 1008 hPa | 0.76 mm | - | - | - |
| 1777753465 | 26.67° C | 76% | 1009 hPa | 0.76 mm | - | - | - |
| 1777753405 | 26.67° C | 76% | 1009 hPa | 0.76 mm | - | - | - |
| 1777752264 | 27.22° C | 76% | 1009 hPa | 0 mm | - | - | - |
| 1777752204 | 27.22° C | 76% | 1009 hPa | 0 mm | - | - | - |
| 1777751063 | 27.78° C | 76% | 1009 hPa | 0 mm | - | - | - |
| 1777751003 | 27.78° C | 76% | 1009 hPa | 0 mm | - | - | - |
| 1777749862 | 28.33° C | 76% | 1009 hPa | 0 mm | - | - | - |
| 1777749802 | 28.33° C | 76% | 1009 hPa | 0 mm | - | - | - |
| 1777748662 | 28.89° C | 76% | 1009 hPa | 0 mm | - | - | - |
* Rain latest hour (hover to see other rain measurements)
** Current wind speed in m/s (hover to see current wind gust speed)